Total_Precipitation_Accumulation
0.33 0.31 0.35 0.42 0.43 0.53 0.68 0.85 1.09 0.98 0.77 0.65 0.63 0.59 0.61 0.67 0.60 0.56 0.55 0.56 0.57 0.56 0.57 0.58 0.62 0.70 0.77 0.89 1.10 1.23 1.31 1.30 1.21 1.14 1.05 0.97 0.87 0.79 0.80 0.70 0.67 0.73 0.89 1.04
0.19 0.19 0.24 0.35 0.47 0.61 0.67 0.74 0.76 0.66 0.62 0.48 0.46 0.41 0.42 0.48 0.48 0.48 0.44 0.39 0.40 0.45 0.47 0.51 0.54 0.61 0.62 0.73 0.90 1.03 1.11 1.14 1.21 1.18 1.01 0.90 0.80 0.71 0.69 0.67 0.65 0.66 0.75 0.90
0.21 0.17 0.28 0.49 0.58 0.65 0.65 0.60 0.52 0.50 0.44 0.32 0.29 0.26 0.26 0.31 0.36 0.42 0.41 0.35 0.34 0.34 0.38 0.46 0.54 0.57 0.61 0.72 0.85 0.89 0.95 0.97 1.02 1.03 0.88 0.81 0.70 0.63 0.62 0.62 0.63 0.63 0.69 0.82
0.32 0.27 0.50 0.69 0.56 0.50 0.56 0.46 0.32 0.30 0.29 0.26 0.21 0.18 0.16 0.17 0.19 0.23 0.26 0.27 0.32 0.30 0.30 0.34 0.41 0.52 0.65 0.70 0.71 0.72 0.78 0.79 0.80 0.82 0.78 0.71 0.61 0.58 0.59 0.62 0.66 0.66 0.68 0.73
0.48 0.45 0.55 0.62 0.43 0.41 0.49 0.47 0.27 0.21 0.19 0.16 0.15 0.14 0.12 0.12 0.13 0.14 0.14 0.18 0.22 0.23 0.23 0.24 0.27 0.29 0.35 0.41 0.45 0.48 0.57 0.64 0.68 0.70 0.68 0.63 0.58 0.65 0.69 0.67 0.67 0.67 0.63 0.64
0.56 0.64 0.71 0.48 0.21 0.21 0.36 0.56 0.25 0.14 0.12 0.11 0.12 0.14 0.13 0.12 0.13 0.12 0.10 0.10 0.14 0.18 0.17 0.16 0.17 0.18 0.21 0.26 0.30 0.34 0.40 0.46 0.55 0.61 0.64 0.66 0.77 0.84 0.85 0.81 0.74 0.66 0.62 0.60
0.61 0.81 0.75 0.44 0.20 0.22 0.42 0.57 0.29 0.14 0.11 0.13 0.13 0.13 0.11 0.11 0.12 0.11 0.09 0.08 0.10 0.13 0.14 0.15 0.16 0.16 0.18 0.22 0.22 0.25 0.24 0.31 0.43 0.60 0.68 0.77 0.90 0.93 0.90 0.83 0.72 0.65 0.62 0.58
0.75 0.97 0.99 0.50 0.29 0.35 0.34 0.23 0.18 0.12 0.11 0.11 0.11 0.11 0.11 0.10 0.09 0.09 0.10 0.09 0.09 0.10 0.11 0.14 0.16 0.15 0.16 0.24 0.25 0.29 0.28 0.29 0.37 0.50 0.64 0.79 0.90 0.89 0.87 0.87 0.79 0.69 0.66 0.64
0.83 0.83 0.65 0.39 0.28 0.23 0.17 0.17 0.11 0.10 0.11 0.12 0.10 0.10 0.10 0.10 0.09 0.08 0.09 0.08 0.09 0.10 0.11 0.12 0.13 0.16 0.17 0.20 0.24 0.26 0.29 0.25 0.27 0.36 0.50 0.68 0.77 0.79 0.80 0.80 0.77 0.74 0.68 0.65
0.43 0.32 0.24 0.21 0.18 0.14 0.10 0.11 0.08 0.07 0.07 0.11 0.13 0.13 0.10 0.10 0.10 0.10 0.10 0.08 0.08 0.10 0.11 0.12 0.13 0.16 0.19 0.23 0.24 0.24 0.26 0.27 0.25 0.25 0.31 0.40 0.48 0.54 0.62 0.67 0.67 0.67 0.67 0.67
0.32 0.19 0.14 0.15 0.15 0.12 0.10 0.09 0.08 0.07 0.07 0.08 0.11 0.12 0.09 0.10 0.09 0.09 0.10 0.10 0.09 0.11 0.13 0.13 0.14 0.15 0.17 0.21 0.24 0.25 0.26 0.28 0.29 0.30 0.33 0.35 0.37 0.41 0.45 0.48 0.58 0.64 0.63 0.65
0.30 0.20 0.15 0.13 0.13 0.14 0.12 0.10 0.09 0.09 0.10 0.11 0.12 0.13 0.12 0.10 0.10 0.09 0.10 0.11 0.12 0.14 0.15 0.15 0.15 0.16 0.16 0.18 0.20 0.22 0.24 0.24 0.24 0.25 0.29 0.30 0.32 0.36 0.39 0.40 0.46 0.49 0.49 0.49
0.15 0.15 0.14 0.13 0.14 0.14 0.11 0.09 0.08 0.08 0.08 0.09 0.10 0.13 0.10 0.08 0.09 0.13 0.16 0.13 0.12 0.13 0.15 0.16 0.16 0.16 0.18 0.19 0.19 0.22 0.23 0.24 0.24 0.23 0.26 0.29 0.30 0.32 0.35 0.35 0.32 0.31 0.34 0.37
0.08 0.12 0.16 0.15 0.13 0.12 0.10 0.09 0.08 0.07 0.07 0.07 0.08 0.11 0.11 0.10 0.11 0.13 0.14 0.15 0.14 0.14 0.15 0.16 0.15 0.14 0.16 0.19 0.22 0.24 0.26 0.30 0.30 0.31 0.32 0.29 0.30 0.33 0.35 0.36 0.31 0.24 0.25 0.29
0.09 0.10 0.13 0.13 0.12 0.10 0.09 0.09 0.08 0.08 0.07 0.09 0.11 0.11 0.13 0.15 0.16 0.17 0.16 0.14 0.12 0.11 0.14 0.16 0.15 0.15 0.17 0.20 0.24 0.25 0.26 0.28 0.30 0.34 0.34 0.33 0.34 0.38 0.37 0.34 0.31 0.27 0.25 0.25
0.11 0.11 0.12 0.13 0.11 0.09 0.09 0.08 0.08 0.09 0.08 0.11 0.13 0.11 0.11 0.13 0.16 0.19 0.22 0.20 0.16 0.13 0.14 0.18 0.18 0.19 0.22 0.25 0.27 0.27 0.27 0.31 0.32 0.32 0.35 0.37 0.36 0.35 0.34 0.32 0.30 0.27 0.26 0.27
0.14 0.13 0.12 0.11 0.09 0.07 0.07 0.09 0.10 0.10 0.10 0.12 0.15 0.13 0.10 0.10 0.11 0.15 0.17 0.20 0.19 0.17 0.16 0.19 0.23 0.26 0.27 0.27 0.30 0.31 0.30 0.31 0.33 0.32 0.29 0.31 0.32 0.31 0.31 0.30 0.28 0.24 0.23 0.25
0.15 0.13 0.09 0.08 0.06 0.07 0.08 0.10 0.11 0.10 0.10 0.13 0.17 0.16 0.14 0.13 0.12 0.14 0.17 0.21 0.20 0.17 0.16 0.19 0.24 0.28 0.29 0.30 0.31 0.33 0.33 0.30 0.27 0.27 0.28 0.28 0.30 0.31 0.32 0.35 0.34 0.30 0.28 0.27
0.12 0.10 0.08 0.07 0.07 0.09 0.11 0.12 0.12 0.11 0.11 0.12 0.14 0.16 0.16 0.16 0.15 0.15 0.17 0.24 0.24 0.21 0.18 0.17 0.22 0.23 0.25 0.27 0.29 0.28 0.30 0.31 0.30 0.29 0.29 0.30 0.32 0.32 0.33 0.34 0.35 0.34 0.34 0.33
0.15 0.13 0.11 0.11 0.12 0.13 0.13 0.13 0.12 0.11 0.11 0.11 0.13 0.14 0.15 0.16 0.15 0.16 0.19 0.25 0.28 0.25 0.19 0.19 0.19 0.19 0.22 0.24 0.31 0.28 0.28 0.26 0.28 0.31 0.34 0.38 0.38 0.38 0.37 0.35 0.36 0.35 0.33 0.33
0.19 0.19 0.17 0.17 0.16 0.14 0.14 0.14 0.13 0.13 0.13 0.13 0.14 0.15 0.16 0.17 0.16 0.17 0.21 0.26 0.23 0.20 0.20 0.22 0.18 0.19 0.22 0.28 0.35 0.32 0.30 0.27 0.28 0.31 0.32 0.35 0.38 0.43 0.48 0.46 0.43 0.40 0.35 0.33
0.20 0.20 0.18 0.16 0.16 0.16 0.16 0.14 0.14 0.15 0.15 0.16 0.16 0.17 0.19 0.21 0.21 0.19 0.20 0.24 0.23 0.25 0.24 0.22 0.20 0.23 0.27 0.30 0.29 0.31 0.33 0.31 0.30 0.32 0.33 0.34 0.37 0.42 0.48 0.51 0.48 0.44 0.42 0.42
0.19 0.19 0.19 0.18 0.17 0.17 0.16 0.16 0.17 0.18 0.19 0.19 0.20 0.23 0.28 0.31 0.30 0.29 0.28 0.25 0.25 0.27 0.25 0.24 0.27 0.32 0.33 0.28 0.27 0.29 0.32 0.35 0.36 0.38 0.40 0.42 0.42 0.45 0.48 0.50 0.52 0.51 0.49 0.50
0.23 0.21 0.21 0.21 0.21 0.20 0.21 0.22 0.21 0.21 0.23 0.25 0.26 0.29 0.34 0.39 0.38 0.36 0.35 0.35 0.33 0.31 0.27 0.29 0.32 0.34 0.35 0.30 0.32 0.34 0.36 0.40 0.44 0.45 0.47 0.50 0.49 0.51 0.54 0.55 0.56 0.56 0.56 0.56
0.30 0.28 0.28 0.31 0.32 0.31 0.31 0.30 0.28 0.26 0.26 0.29 0.30 0.29 0.32 0.35 0.36 0.39 0.40 0.39 0.38 0.37 0.35 0.39 0.41 0.41 0.37 0.35 0.38 0.40 0.42 0.45 0.50 0.52 0.51 0.53 0.54 0.54 0.55 0.58 0.60 0.60 0.61 0.61
0.28 0.27 0.27 0.30 0.34 0.33 0.33 0.33 0.34 0.33 0.33 0.34 0.34 0.33 0.34 0.34 0.34 0.36 0.39 0.41 0.42 0.44 0.41 0.39 0.37 0.38 0.39 0.42 0.43 0.45 0.45 0.46 0.48 0.47 0.49 0.54 0.57 0.58 0.60 0.63 0.63 0.65 0.67 0.68
0.26 0.24 0.24 0.28 0.32 0.32 0.31 0.34 0.39 0.41 0.42 0.44 0.47 0.45 0.42 0.41 0.40 0.40 0.39 0.41 0.46 0.47 0.46 0.45 0.44 0.43 0.45 0.47 0.49 0.50 0.51 0.51 0.48 0.48 0.50 0.53 0.58 0.63 0.66 0.67 0.69 0.72 0.74 0.75